• Processing (Info)

  • MPEC 2019-U272 : 2019 UV11

    The following Minor Planet Electronic Circular may be linked-to from your own Web pages, but must not otherwise be redistributed electronically.

    A form allowing access to any MPEC is at the bottom of this page.


    Read MPEC 2019-U271 Read MPEC 2019-U273


    M.P.E.C. 2019-U272                             Issued 2019 October 30, 12:59 UT
    
         The Minor Planet Electronic Circulars contain information on unusual
             minor planets and routine data on comets.  They are published
        on behalf of Division F of the International Astronomical Union by the
              Minor Planet Center, Smithsonian Astrophysical Observatory,
                              Cambridge, MA 02138, U.S.A.
    
                 Prepared using the Tamkin Foundation Computer Network
    
                                  MPC@CFA.HARVARD.EDU
                URL https://www.minorplanetcenter.net/    ISSN 1523-6714
    
                                    2019 UV11                                
    
    
    Observations:
         K19U11V  C2019 10 22.37448223 05 08.777+34 05 49.98         21.7 GVEU272F51
         K19U11V  C2019 10 22.38782923 05 09.031+34 05 21.73         21.9 GVEU272F51
         K19U11V  C2019 10 22.40119023 05 09.300+34 04 53.28         21.0 GVEU272F51
         K19U11V  C2019 10 22.41462823 05 09.580+34 04 24.33         21.6 GVEU272F51
         K19U11V* C2019 10 28.22649523 10 04.862+30 26 50.23         22.38wUEU272F51
         K19U11V  C2019 10 28.23983023 10 05.550+30 26 18.95         22.11wUEU272F51
         K19U11V  C2019 10 28.25213923 10 06.152+30 25 50.04         22.18wUEU272F51
         K19U11V  C2019 10 29.11356 23 11 05.00 +29 51 04.2          21.9 GVEU272V06
         K19U11V  C2019 10 29.11752 23 11 05.21 +29 50 54.8          22.2 GVEU272V06
         K19U11V  C2019 10 29.20346323 11 11.959+29 47 31.81         21.99GVEU272T12
         K19U11V  C2019 10 29.20612423 11 12.104+29 47 25.45         21.98GVEU272T12
         K19U11V KC2019 10 30.22040 23 12 24.69 +29 05 48.6          21.0 RoEU272291
         K19U11V KC2019 10 30.22488 23 12 24.98 +29 05 37.3          21.2 RoEU272291
         K19U11V KC2019 10 30.22938 23 12 25.28 +29 05 25.9          21.6 RoEU272291
    
    Observer details:
    291 LPL/Spacewatch II.  Observer R. A. Mastaler.  1.8-m f/2.7 reflector + CCD.
    F51 Pan-STARRS 1, Haleakala.  Observers J. Bulger, K. Chambers, T. Lowe, E. 
       Magnier, A. Schultz, M. Willman.  Measurers S. Chastel, M. Huber, Y. 
       Ramanjooloo, R. Wainscoat, R. Weryk, K. Chambers, T. de Boer, L. Denneau, J. 
       Fairlamb, H. Flewelling, C.-C. Lin, E. Magnier.  1.8-m Ritchey-Chretien + 
       CCD.
    T12 Mauna Kea-UH/Tholen NEO Follow-Up (2.24-m).  Observer D. Hung.  Measurer D. 
       J. Tholen.  2.24-m f/10.1 reflector + CCD.
    V06 Catalina Sky Survey-Kuiper.  Observer G. J. Leonard.  Measurers B. M. 
       Africano, E. J. Christensen, G. A. Farneth, D. C. Fuls, A. R. Gibbs, A. D. 
       Grauer, H. Groeller, R. A. Kowalski, S. M. Larson, G. J. Leonard, T. A. 
       Pruyne, D. Rankin, R. L. Seaman, F. C. Shelly.  1.55-m reflector + CCD.
    
    Orbital elements:
    2019 UV11                                                Earth MOID = 0.1391 AU
    Epoch 2019 Apr. 27.0 TT = JDT 2458600.5                 Bell
    M 218.37213              (2000.0)            P               Q
    n   0.60420783     Peri.  191.77284     +0.30708027     -0.93473647
    a   1.3857296      Node   240.57152     +0.88896762     +0.34881016
    e   0.1893657      Incl.   11.84638     +0.33976208     -0.06781748
    P   1.63           H   23.2           G   0.15           U   6
    Residuals in seconds of arc
    191022 F51  0.1+  0.3-    191028 F51  0.1+  0.0     191029 T12  0.0   0.0
    191022 F51  0.0   0.0     191028 F51  0.0   0.1+    191030 291  0.1-  0.1+
    191022 F51  0.0   0.2+    191029 V06  0.2+  0.0     191030 291  0.1+  0.0
    191022 F51  0.1-  0.2+    191029 V06  0.0   0.1+    191030 291  0.4+  0.1-
    191028 F51  0.1-  0.1-    191029 T12  0.0   0.0
    
    Ephemeris:
    2019 UV11                a,e,i = 1.39, 0.19, 12                  q = 1.1233
    Date    TT    R. A. (2000) Decl.     Delta      r    Elong.  Phase     V
    2019 09 30    23 10 48.0 +42 27 02   0.3031  1.2405   136.9    33.5    22.5
    ...
    2019 10 15    23 03 09.2 +37 53 58   0.2621  1.2038   137.5    34.0    22.1
    ...
    2019 10 23    23 05 32.6 +33 43 49   0.2461  1.1861   136.6    35.2    22.0
    ...
    2019 10 29    23 10 56.1 +29 55 44   0.2372  1.1740   135.3    36.5    21.9
    2019 10 30    23 12 08.7 +29 14 58   0.2360  1.1721   135.0    36.8    21.9
    2019 10 31    23 13 26.5 +28 33 31   0.2349  1.1702   134.7    37.1    21.9
    ...
    2019 11 06    23 23 01.6 +24 13 32   0.2298  1.1595   132.7    38.9    21.9
    ...
    2019 11 14    23 40 10.0 +18 11 09   0.2276  1.1472   129.3    41.9    21.9
    ...
    2019 11 29    00 22 33.1 +07 29 31   0.2384  1.1306   121.8    47.8    22.2
    
    A. U. Tomatic                (C) Copyright 2019 MPC           M.P.E.C. 2019-U272
    


    Read MPEC 2019-U271 Read MPEC 2019-U273


    MPEC number:

    Enter an MPEC number in one of the following forms:

    • 1997-B01 (the full form)
    • J97B01 (the packed version of the full form)
    • B01 (the abbreviated form)